Hourly Data Report for October 06, 2015

All times are specified in Local Standard Time (LST). Add 1 hour to adjust for Daylight Saving Time where and when it is observed.

BAKER LAKE A
NUNAVUT

64°17'56.000" N
96°04'40.000" W
18.60 m
2300503
71926
YBK

Download Data

Hourly Data (October 2015)
Hourly Data Report for October 6, 2015
Temp Definition
°C
Dew Point Temp Definition
°C
Rel Hum Definition
%
Wind Dir Definition
10's deg

Wind Spd Definition
km/h
Visibility Definition
km
Stn Press Definition
kPa
Hmdx Definition


Wind Chill Definition


Weather Definition


TIME
00:00 Legend Double Dagger -0.1 -0.7 96 20 8 16.1 100.91   -3 Snow
01:00 Legend Double Dagger -0.1 -0.7 96 22 5 16.1 100.87   -2 Snow
02:00 Legend Double Dagger -0.3 -0.7 97 23 4 24.1 100.86   -2 Snow
03:00 Legend Double Dagger -0.4 -0.8 97 25 7 4.0 100.87   -3 Snow,Fog
04:00 Legend Double Dagger -0.9 -1.3 97 36 1 8.1 100.86   -1 Snow,Fog
05:00 Legend Double Dagger -0.3 -1.2 94 29 9 24.1 100.86   -3 LegendNANA
06:00 Legend Double Dagger -0.5 -1.4 94 36 1 9.7 100.87   -1 Fog
07:00 Legend Double Dagger -1.2 -1.9 95 29 7 16.1 100.87   -4 LegendNANA
08:00 Legend Double Dagger -0.6 -1.5 94 29 14 32.2 100.88   -5 LegendNANA
09:00 Legend Double Dagger -0.3 -1.3 93 27 11 32.2 100.90   -4 Mostly Cloudy
10:00 Legend Double Dagger 0.1 -0.9 93 23 8 32.2 100.89     LegendNANA
11:00 Legend Double Dagger 0.6 -0.6 92 27 8 32.2 100.89     LegendNANA
12:00 Legend Double Dagger 1.5 0.0 90 27 17 32.2 100.86     Mostly Cloudy
13:00 Legend Double Dagger 1.2 -0.6 88 28 29 32.2 100.86     LegendNANA
14:00 Legend Double Dagger 1.8 -0.9 82 27 28 32.2 100.85     Snow Showers
15:00 Legend Double Dagger 0.4 -1.7 86 34 26 32.2 100.90     Mostly Cloudy
16:00 Legend Double Dagger 0.4 -2.5 81 33 24 32.2 100.96     LegendNANA
17:00 Legend Double Dagger -1.0 -3.7 82 33 23 32.2 101.00   -7 LegendNANA
18:00 Legend Double Dagger -1.3 -3.3 86 32 21 32.2 101.01   -7 Mostly Cloudy
19:00 Legend Double Dagger -1.5 -3.7 85 31 17 24.1 101.01   -7 LegendNANA
20:00 Legend Double Dagger -1.9 -4.7 81 32 22 24.1 101.03   -8 LegendNANA
21:00 Legend Double Dagger -2.4 -5.1 82 32 17 24.1 101.02   -8 Mostly Cloudy
22:00 Legend Double Dagger -4.1 -5.8 88 30 19 24.1 101.03   -10 LegendNANA
23:00 Legend Double Dagger -4.3 -6.2 87 31 23 24.1 101.04   -11 LegendNANA

Notes on Data Quality.

Legend

  • E = Estimated
  • M = Missing
  • NA = Not Available
  • ‡ = Partner data that is not subject to review by the National Climate Archives
Date modified: